Regional Weather Roundup
Issued by NWS Wakefield, VA

Home | Current Version | Previous Version | Graphics & Text | Print | Product List | Glossary On
Versions: 1 2 3 4 5 6 7 8 9 10 11 12 13 14 15 16 17 18 19 20 21 22 23 24 25 26 27 28 29 30 31 32 33 34 35 36 37 38 39 40 41 42 43 44 45 46 47 48 49 50
000
ASUS41 KAKQ 250514
RWRAKQ

REGIONAL WEATHER ROUNDUP
NATIONAL WEATHER SERVICE WAKEFIELD VA
1200 AM EST SAT FEB 25 2017

Note: "fair" indicates few or no clouds below 12,000 feet with no
significant weather and/or obstructions to visibility. * = Denotes
station may not report precipitation (e.g., rain,snow,etc.),
thunder or fog.

VAZ042-051-052>054-056-250600-
NORTHERN VIRGINIA

CITY           SKY/WX    TMP DP  RH WIND       PRES   REMARKS
WASH NATIONAL  MOCLDY    62  59  90 S12       29.79S
DULLES         MOCLDY    63  57  81 S9        29.76S
FORT BELVOIR   PTCLDY    62  57  84 SE8       29.78S
QUANTICO       CLEAR     55  54  96 S9        29.79S
FREDERICKSBRG* PTCLDY    64  59  85 S10       29.78R
STAFFORD*      MOCLDY    64  59  86 S10       29.82S
WARRENTON      PTCLDY    65  55  69 S8        29.76S
CULPEPER*      PTCLDY    64  57  78 S8        29.77S
MANASSAS*        N/A     62  57  83 S10       29.77S
LEESBURG*      MOCLDY    64  61  88 MISG      29.77S
WINCHESTER     PTCLDY    61  50  67 S6        29.73S
FRONT ROYAL*   PTCLDY    63  52  67 S5        29.72
LURAY*         PTCLDY    64  54  68 SW8       29.74F
$$

VAZ048-049-060>072-079>083-250600-
CENTRAL AND SOUTH CENTRAL VIRGINIA

CITY           SKY/WX    TMP DP  RH WIND       PRES   REMARKS
RICHMOND       PTCLDY    62  58  86 S9        29.80F
CHESTERFIELD*  FAIR      63  45  51 S9        29.82F
PETERSBURG*    CLEAR     60  56  87 S5        29.81F
HANOVER        CLEAR     63  55  75 S7        29.81S
TAPPAHANNOCK*  CLEAR     61  60  97 SE5       29.82S
QUINTON*       FAIR      62  60  95 MISG      29.80F
CHARLOTTSVILLE CLOUDY    65  54  67 S8        29.76S
GORDONSVILLE*  CLOUDY    63  56  79 SW8       29.77S
ORANGE*        MOCLDY    61  54  77 CALM      29.78S
LOUISA*        PTCLDY    66  61  82 S5        29.77S
BUMPASS*       NOT AVBL
FARMVILLE*     CLEAR     63  58  84 S9        29.77S
CREWE*         FAIR      62  62 100 S9        29.79F
FORT PICKETT*  NOT AVBL
CHASE CITY*    FAIR      63  61  94 S7        29.80F
CLARKSVILLE*   FAIR      63  59  88 S7        29.80F
SOUTH HILL*    CLEAR     60  58  94 S7        29.86F
LAWRENCEVILLE* NOT AVBL
EMPORIA*       PTCLDY    57  55  94 SE3       29.84S
$$

VAZ088>098-250600-
SOUTHEAST VIRGINIA

CITY           SKY/WX    TMP DP  RH WIND       PRES   REMARKS
NORFOLK        PTCLDY    61  56  83 S8        29.83F
VIRGINIA BEACH PTCLDY    60  54  80 S9        29.82F
NORFOLK NAVAL  PTCLDY    62  56  80 S7        29.84F
WEST POINT*    PTCLDY    61  58  88 SE8       29.83S
SALUDA*        FAIR      60  58  96 S10       29.82F
NEWPORT NEWS   CLEAR     61  57  87 S6        29.83F
LANGLEY AFB    CLEAR     60  58  92 S5        29.82F
FORT EUSTIS    CLEAR     61  57  88 SE6       29.80F
WILLIAMSBURG*  PTCLDY    61  59  94 CALM      29.83F
HR EXEC AP*    NOT AVBL
FRANKLIN*      PTCLDY    58  55  90 CALM      29.83F
US460-WAKEFLD  PTCLDY    59  56  89 CALM      29.82F
$$

VAZ020-022-025-037-045-250600-
WEST CENTRAL AND SOUTHWEST VIRGINIA

CITY           SKY/WX    TMP DP  RH WIND       PRES   REMARKS
STAUNTON*      CLOUDY    60  51  71 SW6       29.78F
WAYNESBORO*    MOCLDY    64  51  63 S13G20    29.77F
HOT SPRINGS VA CLOUDY    55  45  67 S14G20    29.84S
LYNCHBURG      CLOUDY    62  53  72 S9        29.79S
DANVILLE       MOCLDY    61  54  77 S3        29.79S
SOUTH BOSTON*  NOT AVBL
MARTINSVILLE   MOCLDY    59  51  74 SW3       29.81F
ROANOKE        PTCLDY    62  50  64 CALM      29.79F
BLACKSBURG     PTCLDY    58  50  76 CALM      29.82F
DUBLIN*        PTCLDY    60  51  72 SW6       29.80F
MARION*        CLEAR     60  50  69 CALM      29.81S
HILLSVILLE*    CLEAR     59  51  75 S10G16    29.80F
RICHLANDS*     FAIR      60  48  64 S9G17     29.75F
WISE*          CLEAR     61  46  59 S13G18    29.72F
ABINGDON*      CLEAR     61  49  65 CALM      29.75F
$$

MDZ021>025-VAZ099-100-250600-
SOUTHERN MARYLAND AND THE DELMARVA PENINSULA

CITY           SKY/WX    TMP DP  RH WIND       PRES   REMARKS
PATUXENT RIVER PTCLDY    60  57  89 S12G17    29.81F
BAY BRIDGE APT PTCLDY    59  55  88 S10G18    29.80F
LEONARDTOWN    PTCLDY    61  55  82 SE6       29.83S
DOVER          CLEAR     57  57 100 SE7       29.82F
GEORGETOWN     CLEAR     58  55  90 S7        29.84F
EASTON         PTCLDY    63  56  80 SW12G18   29.85S
CAMBRIDGE        N/A     59  55  88 S6        29.83S
SALISBURY      CLEAR     59  57  93 S7        29.83F
OCEAN CITY     CLEAR     56  53  90 S5        29.85F
WALLOPS ISLAND CLEAR     55  54  96 S12       29.85F
ACCOMACK*      CLEAR     59  56  88 S12       29.84F
$$

NCZ012>017-030>032-250600-
NORTH CENTRAL AND EASTERN NORTH CAROLINA

CITY           SKY/WX    TMP DP  RH WIND       PRES   REMARKS
ROANOKE RAPIDS FAIR      61  59  94 S3        29.83S
RALEIGH        PTCLDY    64  57  78 S8        29.82F
ELIZABETH CITY CLEAR     56  54  93 SE3       29.84F
AHOSKIE*         N/A     56  56  99 CALM      29.83F
EDENTON*       CLEAR     57  55  91 SE3       29.84F
CURRITUCK*     CLEAR     58  58 100 CALM      29.85F
KILL DEVIL HLS NOT AVBL
MANTEO         CLEAR     60  57  89 SE5       29.84F
CAPE HATTERAS  MOCLDY    64  60  87 E6        29.82F FOG
TARBORO*       NOT AVBL
GOLDSBORO      PTCLDY    59  59 100 CALM      29.82S FOG
WASHINGTON     PTCLDY    55  53  95 CALM      29.84S
GREENVILLE     PTCLDY    55  55 100 CALM      29.86F
NEW BERN       FOG       52  52 100 CALM      29.84F VSB 1/2
WILMINGTON     PTCLDY    56  56 100 CALM      29.83F
$$

VAZ048-250600-
ELSEWHERE

CITY           SKY/WX    TMP DP  RH WIND       PRES   REMARKS
HARRISBURG PA  CLOUDY    60  57  89 S8        29.75F
BALTIMORE      MOCLDY    57  57 100 SE3       29.79S
ANNAPOLIS      CLOUDY    56  54  93 S10       29.80F
ANDREWS AFB    PTCLDY    62  57  86 S16       29.78S
PHILADELPHIA   MOCLDY    58  55  90 S7        29.83F
HENDERSON NC   PTCLDY    60  55  83 S6        29.81F
GREENSBORO     MOCLDY    61  54  77 S7        29.80S
ROCKY MOUNT    CLEAR     59  58  96 S5        29.83F
$$

VAZ100-250600-
MARINE

STATION/POSITION TIME  TEMP    WIND        PRES    WAVE   SWELL
                       AIR SEA DIR/SP/G            HT/PER HT/PER
                 (UTC) (F)     (DEG/KT/KT) (MB)    (FT/S) (FT/S)
CAPE MAY NJ      0448   52 45  160/ 10/ 13 1010.2F
LEWES DE         0448   60 45  180/  4/  7 1010.2F
OCEAN-CITY-INLET 0448   52 45  220/  7/  8 1011.3F
WACHAPREAGUE VA  0442   57 58  190/  6/  8 1010.7F
THOMAS POINT MD  0500   53 45  170/ 16/ 18   N/A
GOOSES REEF MD   0500   49 45  160/ 12/ 14 1010.0    1/ 2
COVE POINT MD    0442   52     190/ 14/ 17 1010.1F
SOLOMONS ISLAND  0442   54 46  140/  5/  6   N/A
BISHOPS HEAD MD  0448   51 52  150/  9/ 10 1010.1F
PINEY POINT MD   0448          160/  8/  8   N/A
POTOMAC MD       0500   51 46  170/  8/  8 1008.7    1/ 2
CAMBRIDGE MD     0448   60 44  160/  6/ 10 1009.0F
LEWISETTA VA     0442   62 46  200/ 11/ 13 1009.1F
RAPPAHANNOCK LGT 0448          150/ 11/ 11 1010.6F
YORK RVR RNG VA  0442   55     180/ 12/ 12 1009.3F
YORKTOWN VA      0442   62 49  180/  6/  9 1009.6F
JAMESTOWN VA     0500   60 53  120/  6/  6   N/A     0
DOMINION TERM VA 0442   59     140/  5/  6 1010.1F
KIPTOPEKE VA     0448      50  170/  7/  9   N/A
CHES BAY BRIDGE  0442   60 50  180/  7/  8 1010.1F
CAPE HENRY VA    0442   64     160/ 12/ 16   N/A
WILLOUBY STN VA  0442   62     170/ 11/ 12 1010.9F
S CRANEY ISL VA  0442   59     250/  1/  2 1010.0F
CAPE HENRY BUOY  0442      50                N/A     4/11   2/11
OFFSHORE WE BUOY 0451      51                N/A     5/10   2/11
64NM E OF VA BCH 0450   58 55  110/  8/  8 1010.4F   6/ 9   7/ 9
DUCK PIER NC     0442   58 49  150/  6/  6 1010.1F
44100 DUCK FRF   0435      51                N/A     6/ 9   2/12
44056 DUCK FRF   0430      51                N/A     5/12   2/12
OREGON INLET NC  0442   57 59   90/  3/  4 1010.2F
HATTERAS NC      0442   66 63   70/  3/  5 1009.5F
DIAMOND SHLS NC  0450   71 76  100/ 16/ 19 1009.5F   8/10   7/10
CAPE LOOKOUT NC  0400   66     100/ 10/ 11 1009.4F
$$



USA.gov is the U.S. government's official web portal to all federal, state and local government web resources and services.